Location: Newark
(42.7133°N, 87.7910°W)
Time: 10:46:49
(UTC+00:00)

SR - Pass Details

Date: 29 October 2019
Orbit: 574 x 882 km, 66.7° (Epoch: 13 November)

Event Time Altitude Azimuth Distance (km) Brightness Sun altitude
Exits shadow 08:04:51 11° 33° (NNE) 2,485 ? -46.4°
Drops below altitude 10° 08:05:52 10° 43° (NE) 2,545 ? -46.3°
Sets 08:10:48 0° 78° (ENE) 3,477 ? -45.5°
